Location: �terpigny
(49.8910°N, 2.9249°E)
Time: 17:57:37
(UTC+00:00)

Cosmos 371 Rocket - Pass Details

Date: 24 October 2021
Orbit: 684 x 699 km, 74.0° (Epoch: 07 December)

Event Time Altitude Azimuth Distance (km) Brightness Sun altitude
Rises 18:06:04 0° 205° (SSW) 3,059 7.0 -14.6°
Reaches altitude 10° 18:08:22 10° 206° (SSW) 2,149 6.2 -14.9°
Maximum altitude 18:13:13 81° 294° (WNW) 712 3.4 -15.7°
Drops below altitude 10° 18:18:08 10° 22° (NNE) 2,171 5.6 -16.5°
Sets 18:20:28 0° 24° (NNE) 3,094 6.4 -16.9°
